Location: Tierra Monte Subdivision
(35.2092°N, 106.4864°W)
Time: 09:48:03
(UTC+00:00)

SL-16 R/B - Pass Details

Date: 30 March 2020
Orbit: 840 x 849 km, 71.0° (Epoch: 05 June)

Event Time Altitude Azimuth Distance (km) Brightness Sun altitude
Rises 03:12:14 0° 223° (SW) 3,385 5.6 -22.0°
Reaches altitude 10° 03:14:53 10° 232° (SW) 2,452 5.0 -22.5°
Maximum altitude 03:19:59 35° 298° (WNW) 1,329 3.8 -23.4°
Drops below altitude 10° 03:25:08 10° 3° (N) 2,462 4.8 -24.4°
Sets 03:27:48 0° 13° (NNE) 3,400 5.5 -24.9°
